Location: Rio Tanui
(39.9167°N, 8.5167°E)
Time: 04:01:05
(UTC+00:00)

CZ-4 R/B - Pass Details

Date: 08 February 2023
Orbit: 577 x 586 km, 97.7° (Epoch: 01 April)

Event Time Altitude Azimuth Distance (km) Brightness Sun altitude
Rises 17:42:35 0° 165° (SSE) 2,779 7.9 -10.0°
Reaches altitude 10° 17:44:43 10° 165° (SSE) 1,886 7.0 -10.4°
Maximum altitude 17:48:48 87° 80° (E) 587 4.4 -11.1°
Drops below altitude 10° 17:52:57 10° 349° (NNW) 1,907 7.1 -11.9°
Sets 17:55:07 0° 349° (NNW) 2,813 8.0 -12.3°
